Evansville, IN

11:24 PM CST on December 09, 2019 (GMT -0600)
Evansville Regional

Weather History for KEVV - November, 2019

Change the Weather History Date:

Thursday, November 14, 2019

  Actual Average Record
Temperature  
Mean Temperature 37 °F 47 °F  
Max Temperature 46 °F 57 °F 77 °F (1971)
Min Temperature 28 °F 37 °F 11 °F (1986)
Degree Days  
Heating Degree Days 28 18  
Month to date heating degree days 381 213  
Since 1 July heating degree days 634 516  
Cooling Degree Days 0 0  
Month to date cooling degree days 0 0  
Year to date cooling degree days 1640 1395  
Moisture  
Dew Point 23 °F    
Average Humidity 59    
Maximum Humidity 79    
Minimum Humidity 41    
Precipitation  
Precipitation T in 0.15 in 2.40 in (1993)
Month to date precipitation 1.18 1.88  
Year to date precipitation 53.52 39.10  
Snow  
Snow 0.00 in 0.00 in 0.80 in (2018)
Month to date snowfall 1.1 0.0  
Since 1 July snowfall 1.1 0.2  
Since 1 September snowfall 1.1 0.2  
Snow Depth T in    
Sea Level Pressure  
Sea Level Pressure 30.29 in    
Wind  
Wind Speed 5 mph ()    
Max Wind Speed 10 mph    
Max Gust Speed 15 mph    
Visibility 9.9 miles    
Events      
T = Trace of Precipitation, MM = Missing Value Source: Averaged Metar Reports

Daily Weather History Graph

Daily Weather History Graph

Search for Another Location

Airport or City:

Astronomy

Nov. 14, 2019 Rise Set
Actual Time 6:29 AM CST 4:39 PM CST
Civil Twilight 6:01 AM CST 5:07 PM CST
Nautical Twilight 5:29 AM CST 5:38 PM CST
Astronomical Twilight 4:58 AM CST 6:09 PM CST
Moon 6:25 PM CST (11/14) 8:23 AM CST (11/14)
Length of Visible Light 11h 05m
Length of Day
10h 09m
Waning Gibbous, 95% of the Moon is Illuminated
Nov 14
Waning Gibbous
Nov 19
Last Quarter
Nov 26
New
Dec 4
First Quarter
Dec 11
Full

Hourly Weather History & Observations

Time (CST) Temp. Windchill Dew Point Humidity Pressure Visibility Wind Dir Wind Speed Gust Speed Precip Events Conditions
12:54 AM 28.9 °F 25.2 °F 21.0 °F 72% 30.21 in 10.0 mi South 3.5 mph - N/A   Clear
1:54 AM 30.0 °F 26.5 °F 21.0 °F 69% 30.21 in 10.0 mi South 3.5 mph - N/A   Partly Cloudy
3:54 AM 32.0 °F 26.4 °F 21.0 °F 64% 30.21 in 10.0 mi South 5.8 mph - N/A   Overcast
4:54 AM 33.1 °F 26.9 °F 21.0 °F 61% 30.22 in 10.0 mi SSW 6.9 mph - N/A   Overcast
5:54 AM 33.1 °F 26.1 °F 21.9 °F 64% 30.24 in 10.0 mi SSW 8.1 mph - N/A   Overcast
6:54 AM 32.0 °F 26.4 °F 21.9 °F 66% 30.26 in 10.0 mi SW 5.8 mph - N/A   Overcast
7:54 AM 34.0 °F 27.2 °F 21.9 °F 61% 30.27 in 10.0 mi SW 8.1 mph - N/A   Clear
8:54 AM 36.0 °F 31.1 °F 21.9 °F 57% 30.29 in 10.0 mi SW 5.8 mph - N/A   Clear
9:54 AM 42.1 °F 37.7 °F 23.0 °F 47% 30.29 in 10.0 mi West 6.9 mph - N/A   Clear
10:54 AM 43.0 °F 38.8 °F 21.0 °F 42% 30.29 in 10.0 mi NNW 6.9 mph - N/A   Clear
12:54 PM 44.1 °F - 23.0 °F 43% 30.28 in 10.0 mi Calm Calm - N/A   Clear
1:54 PM 45.0 °F 42.6 °F 25.0 °F 46% 30.27 in 10.0 mi Variable 4.6 mph - N/A   Partly Cloudy
2:54 PM 44.1 °F 41.5 °F 23.0 °F 43% 30.29 in 10.0 mi West 4.6 mph - N/A   Overcast
3:54 PM 43.0 °F 39.5 °F 25.0 °F 49% 30.31 in 10.0 mi NNW 5.8 mph - N/A   Overcast
4:54 PM 39.0 °F 35.7 °F 25.0 °F 57% 30.32 in 10.0 mi NW 4.6 mph - 0.00 in   Mostly Cloudy
5:54 PM 37.0 °F 33.3 °F 23.0 °F 57% 30.34 in 10.0 mi NNW 4.6 mph - N/A   Clear
6:54 PM 34.0 °F 29.8 °F 23.0 °F 64% 30.36 in 10.0 mi NNW 4.6 mph - N/A   Clear
7:54 PM 34.0 °F 31.0 °F 23.0 °F 64% 30.36 in 10.0 mi North 3.5 mph - N/A   Clear
8:54 PM 34.0 °F 28.0 °F 23.0 °F 64% 30.38 in 10.0 mi NNW 6.9 mph - N/A   Clear
10:54 PM 30.9 °F 24.3 °F 25.0 °F 79% 30.40 in 9.0 mi NNW 6.9 mph - N/A   Clear
11:54 PM 30.0 °F 23.2 °F 24.1 °F 79% 30.39 in 9.0 mi North 6.9 mph - N/A   Clear